Weather History for EGWU - March, 2013

Change the Weather History Date:

Friday, March 15, 2013

  Actual Average Record
Temperature  
Mean Temperature 42 °F -  
Max Temperature 48 °F 53 °F - (-1)
Min Temperature 37 °F 40 °F - (-1)
Degree Days  
Heating Degree Days 22    
Moisture  
Dew Point 37 °F    
Average Humidity 77    
Maximum Humidity 93    
Minimum Humidity 56    
Precipitation  
Precipitation 0.12 in - - ()
Sea Level Pressure  
Sea Level Pressure 29.72 in    
Wind  
Wind Speed 10 mph ()    
Max Wind Speed 18 mph    
Max Gust Speed 29 mph    
Visibility 7.0 miles    
Events Rain    
Averages and records for this station are not official NWS values.
T = Trace of Precipitation, MM = Missing Value Source: Averaged Metar Reports

Daily Weather History Graph

Daily Weather History Graph

Search for Another Location

Airport or City:

Trip Planner

Search our weather history database for the weather conditions in past years. The results will help you decide how hot, cold, wet, or windy it might be!

Date:

Astronomy

Mar. 15, 2013 Rise Set
Actual Time 6:15 AM GMT 6:06 PM GMT
Civil Twilight 5:42 AM GMT 6:39 PM GMT
Nautical Twilight 5:03 AM GMT 7:18 PM GMT
Astronomical Twilight 4:23 AM GMT 7:59 PM GMT
Moon 7:27 AM GMT (3/15) 10:39 PM GMT (3/15)
Length of Visible Light 12h 57m
Length of Day
11h 50m
Waxing Crescent, 14% of the Moon is Illuminated
Mar 15
Waxing Crescent
Mar 19
First Quarter
Mar 27
Full
Apr 3
Last Quarter
Apr 10
New

Hourly Weather History & Observations

Time (GMT) Temp. Windchill Dew Point Humidity Pressure Visibility Wind Dir Wind Speed Gust Speed Precip Events Conditions
12:50 AM 37.4 °F 32.1 °F 26.6 °F 65% 29.92 in 6.2 mi West 6.9 mph - N/A   Mostly Cloudy
1:50 AM 37.4 °F 33.8 °F 26.6 °F 65% 29.89 in 6.2 mi SW 4.6 mph - N/A   Mostly Cloudy
2:50 AM 37 °F - 27 °F 56% 29.87 in 19 mi SSW 8.1 mph - -   Scattered Clouds
2:50 AM 37.4 °F 31.4 °F 26.6 °F 65% 29.86 in 6.2 mi SSW 8.1 mph - N/A   Overcast
3:50 AM 37.4 °F 31.4 °F 28.4 °F 70% 29.83 in 6.2 mi SW 8.1 mph - N/A   Mostly Cloudy
4:50 AM 37.4 °F 32.8 °F 32.0 °F 81% 29.83 in 6.2 mi SW 5.8 mph - N/A   Scattered Clouds
5:50 AM 37 °F - 34 °F 83% 29.83 in 6 mi SW 8.1 mph - - Rain Rain
5:50 AM 37.4 °F 31.4 °F 33.8 °F 87% 29.80 in 5.6 mi SW 8.1 mph - N/A Rain Rain
6:50 AM 39.2 °F 33.6 °F 35.6 °F 87% 29.80 in 6.2 mi SW 8.1 mph - N/A Rain Light Rain
7:50 AM 41.0 °F 35.2 °F 37.4 °F 87% 29.80 in 6.2 mi SW 9.2 mph - N/A Rain Light Rain
8:50 AM 43 °F - 38 °F 76% 29.80 in 12 mi SW 12.7 mph - - Rain Light Rain
8:50 AM 42.8 °F 36.2 °F 37.4 °F 81% 29.77 in 6.2 mi SW 12.7 mph - N/A   Overcast
9:50 AM 44.6 °F 38.1 °F 39.2 °F 81% 29.77 in 6.2 mi SW 13.8 mph - N/A   Overcast
10:50 AM 46.4 °F 40.4 °F 37.4 °F 71% 29.74 in 6.2 mi SW 13.8 mph - N/A Rain Light Rain
11:50 AM 47 °F - 37 °F 58% 29.73 in 25 mi SW 18.4 mph - - Rain Light Rain
11:50 AM 48.2 °F - 37.4 °F 66% 29.71 in 6.2 mi SW 18.4 mph - N/A Rain Light Rain
12:50 PM 46.4 °F 40.4 °F 39.2 °F 76% 29.71 in 6.2 mi SSW 13.8 mph - N/A Rain Light Rain
1:50 PM 48.2 °F - 37.4 °F 66% 29.68 in 6.2 mi SW 12.7 mph - N/A   Overcast
2:50 PM 48 °F - 39 °F 61% 29.68 in 19 mi SW 13.8 mph - - Rain Light Rain Showers
2:50 PM 48.2 °F - 39.2 °F 71% 29.65 in 6.2 mi SW 13.8 mph - N/A Rain Light Rain Showers
3:50 PM 46.4 °F 39.5 °F 39.2 °F 76% 29.65 in 6.2 mi SSW 17.3 mph - N/A Rain Light Rain
4:50 PM 46.4 °F 40.1 °F 39.2 °F 76% 29.62 in 6.2 mi SSW 15.0 mph - N/A Rain Light Rain
5:50 PM 44 °F - 41 °F 83% 29.65 in 4 mi SSW 13.8 mph - - Rain Rain
5:50 PM 44.6 °F 38.1 °F 41.0 °F 87% 29.62 in 4.3 mi SSW 13.8 mph - N/A Rain Rain
6:50 PM 44.6 °F 38.1 °F 41.0 °F 87% 29.62 in 5.0 mi SSW 13.8 mph - N/A Rain Light Rain
7:50 PM 42.8 °F 37.0 °F 41.0 °F 93% 29.62 in 4.3 mi SSW 10.4 mph - N/A Rain Light Rain
8:50 PM 44 °F - 40 °F 83% 29.61 in 4 mi SSW 15.0 mph - -   Scattered Clouds
8:50 PM 44.6 °F 37.8 °F 41.0 °F 87% 29.59 in 4.3 mi SSW 15.0 mph - N/A   Mostly Cloudy
9:50 PM 44.6 °F 38.1 °F 39.2 °F 81% 29.56 in 6.2 mi SSW 13.8 mph - N/A   Scattered Clouds
11:50 PM 44 °F - 40 °F 83% 29.56 in 12 mi SSW 17.3 mph - -   Partly Cloudy
11:50 PM 44.6 °F 37.2 °F 41.0 °F 87% 29.53 in 6.2 mi SSW 17.3 mph 28.8 mph N/A   Mostly Cloudy